FW8095 Weather Reports


Display with metric or nautical units.
time (UTC)temp
F
wind
direction
speed
MPH
gust
MPH
rain 1hr
in
rain 24hr
in
rain mn
in
humidity
%
barometer
mb
20260509090041 60 96 0.0 1.0 0.04 0.04 0.04 95 1011.1
20260509084538 60 0 0.0 1.0 0.04 0.04 0.04 94 1011.2
20260509083048 60 305 0.0 1.0 0.01 0.01 0.01 93 1012.3
20260509081539 60 0 0.0 1.0 0.00 0.00 0.00 92 1013.0
20260509080037 60 0 0.0 1.0 0.00 0.00 0.00 92 1013.1
20260509074537 60 0 0.0 0.0 0.00 0.00 0.00 92 1013.0
20260509073037 60 0 0.0 1.0 0.00 0.00 0.00 91 1013.0
20260509071533 60 0 0.0 1.0 0.00 0.00 0.00 92 1012.4
20260509070040 60 0 0.0 0.0 0.00 0.00 0.00 92 1012.3
20260509064544 60 0 0.0 1.0 0.00 0.00 0.00 92 1012.6
20260509063038 59 0 0.0 1.0 0.00 0.00 0.00 92 1012.6
20260509061541 59 0 0.0 0.0 0.00 0.00 0.00 92 1012.5
20260509060037 59 0 0.0 1.0 0.00 0.00 0.00 92 1012.5
20260509054540 58 0 0.0 0.0 0.00 0.00 0.00 91 1012.9
20260509053058 58 0 0.0 0.0 0.00 0.00 0.00 91 1013.1
20260509051536 58 0 0.0 0.0 0.00 0.00 0.00 91 1013.3
20260509050037 58 0 0.0 0.0 0.00 0.00 0.00 91 1013.5
20260509044534 59 0 0.0 0.0 0.00 0.00 0.00 90 1013.4
20260509043050 59 0 0.0 0.0 0.00 0.00 0.00 89 1013.3
20260509041551 59 0 0.0 1.0 0.00 0.00 0.00 89 1013.3
20260509040039 59 0 0.0 0.0 0.00 0.00 0.00 88 1013.2
20260509034546 59 0 0.0 0.0 0.00 0.00 0.00 88 1013.4
20260509033033 59 0 0.0 1.0 0.00 0.00 0.00 88 1013.5
20260509031540 59 0 0.0 0.0 0.00 0.00 0.00 88 1013.4
20260509030036 59 0 0.0 0.0 0.00 0.00 0.00 87 1013.2
20260509024536 59 0 0.0 0.0 0.00 0.00 0.00 87 1013.1
20260509023037 60 0 0.0 0.0 0.00 0.00 0.00 86 1013.4
20260509021533 60 0 0.0 0.0 0.00 0.00 0.00 85 1013.5
20260509020047 60 0 0.0 0.0 0.00 0.00 0.00 85 1013.6
20260509014538 60 0 0.0 0.0 0.00 0.00 0.00 84 1013.2
20260509013047 60 0 0.0 1.0 0.00 0.00 0.00 84 1013.2
20260509011536 60 0 0.0 0.0 0.00 0.00 0.00 83 1013.3
20260509010051 61 0 0.0 0.0 0.00 0.00 0.00 83 1013.3
20260509004537 61 0 0.0 0.0 0.00 0.00 0.00 82 1013.6
20260509003037 61 0 0.0 0.0 0.00 0.00 0.00 81 1013.5
20260509001536 62 0 0.0 1.0 0.00 0.00 0.00 81 1013.6
20260509000034 62 0 0.0 0.0 0.00 0.00 0.00 81 1013.5
20260508234536 62 0 0.0 0.0 0.00 0.00 0.00 80 1014.1
20260508233037 62 0 0.0 0.0 0.00 0.00 0.00 81 1014.4
20260508231536 63 0 0.0 0.0 0.00 0.00 0.00 79 1014.5
20260508230047 63 0 0.0 1.0 0.00 0.00 0.00 77 1014.6
20260508224541 64 0 0.0 2.0 0.00 0.00 0.00 75 1014.5
20260508223042 64 0 0.0 3.0 0.00 0.00 0.00 76 1014.7
20260508221545 64 0 0.0 4.0 0.00 0.00 0.00 77 1014.6
20260508220038 64 0 0.0 0.0 0.00 0.00 0.00 76 1014.6
20260508214535 65 0 0.0 0.0 0.00 0.00 0.00 74 1014.6
20260508213034 65 312 0.0 1.0 0.00 0.00 0.00 72 1014.7
20260508211535 65 0 0.0 1.0 0.00 0.00 0.00 75 1014.9
20260508210039 65 0 0.0 1.0 0.00 0.00 0.00 75 1015.0
20260508204539 65 0 0.0 1.0 0.00 0.00 0.00 72 1015.2
20260508203035 66 0 0.0 1.0 0.00 0.00 0.00 73 1014.8
20260508201536 65 0 0.0 1.0 0.00 0.00 0.00 71 1014.9
20260508200043 65 0 0.0 1.0 0.00 0.00 0.00 71 1015.0
20260508194539 65 0 0.0 2.0 0.00 0.00 0.00 71 1015.3
20260508193037 65 0 0.0 2.0 0.00 0.00 0.00 70 1015.5
20260508191538 66 0 0.0 1.0 0.00 0.00 0.00 72 1015.5
20260508190043 66 264 0.0 2.0 0.00 0.00 0.00 70 1015.0
20260508184538 66 250 0.0 3.0 0.00 0.00 0.00 68 1015.5
20260508183037 66 81 0.0 2.0 0.00 0.00 0.00 69 1015.7
20260508181537 66 0 0.0 2.0 0.00 0.00 0.00 65 1016.3
20260508180038 66 94 0.0 1.0 0.00 0.00 0.00 64 1016.5
20260508174540 66 0 0.0 3.0 0.00 0.00 0.00 63 1016.6
20260508173034 67 0 0.0 2.0 0.00 0.00 0.00 64 1017.1
20260508171539 67 104 0.0 3.0 0.00 0.00 0.00 66 1017.0
20260508170036 67 0 1.0 4.0 0.00 0.00 0.00 64 1017.3
20260508164539 67 127 1.0 3.0 0.00 0.00 0.00 64 1017.6
20260508163037 67 0 0.0 2.0 0.00 0.00 0.00 63 1017.7
20260508161534 68 102 1.0 3.0 0.00 0.00 0.00 66 1017.7
20260508160038 66 115 0.0 5.0 0.00 0.00 0.00 65 1017.7
20260508154536 66 115 1.0 4.0 0.00 0.00 0.00 65 1018.2
20260508153037 65 103 0.0 4.0 0.00 0.00 0.00 70 1018.0
20260508151537 64 103 1.0 3.0 0.00 0.00 0.00 70 1017.9
20260508150041 63 0 0.0 4.0 0.00 0.00 0.00 71 1018.1
20260508144537 64 0 1.0 3.0 0.00 0.00 0.00 68 1018.1
20260508143036 63 284 0.0 3.0 0.00 0.00 0.00 70 1018.2
20260508141538 63 271 1.0 4.0 0.00 0.00 0.00 70 1018.2
20260508140040 62 0 0.0 4.0 0.00 0.00 0.00 73 1018.5
20260508134538 61 70 0.0 1.0 0.00 0.00 0.00 78 1018.6
20260508133036 60 0 0.0 1.0 0.00 0.00 0.00 82 1018.9
20260508131539 58 0 0.0 1.0 0.00 0.00 0.00 83 1018.6
20260508130056 57 0 0.0 1.0 0.00 0.00 0.00 86 1018.6
20260508124536 56 0 0.0 1.0 0.00 0.01 0.00 89 1018.2
20260508123035 56 0 0.0 1.0 0.00 0.01 0.00 91 1018.2
20260508121534 55 0 0.0 0.0 0.00 0.01 0.00 92 1018.0
20260508120038 55 0 0.0 0.0 0.00 0.01 0.00 92 1017.7
20260508114538 55 0 0.0 0.0 0.00 0.01 0.00 92 1017.6
20260508113041 54 0 0.0 0.0 0.00 0.01 0.00 92 1017.4
20260508111534 54 0 0.0 0.0 0.00 0.01 0.00 91 1017.3
20260508110038 54 0 0.0 0.0 0.00 0.01 0.00 92 1017.0
20260508104603 54 0 0.0 0.0 0.00 0.01 0.00 92 1017.0
20260508103045 55 0 0.0 0.0 0.00 0.01 0.00 91 1016.9
20260508101535 55 0 0.0 0.0 0.00 0.01 0.00 92 1016.6
20260508100034 55 0 0.0 0.0 0.00 0.01 0.00 93 1016.7
20260508094536 55 0 0.0 0.0 0.00 0.02 0.00 93 1016.4
20260508093038 55 0 0.0 0.0 0.00 0.02 0.00 94 1015.9
20260508091539 55 0 0.0 0.0 0.00 0.02 0.00 94 1015.5